Time,TemperatureF,DewpointF,PressureIn,WindDirection,WindDirectionDegrees,WindSpeedMPH,WindSpeedGustMPH,Humidity,HourlyPrecipIn,Conditions,Clouds,dailyrainin,SoftwareType,DateUTC
2013-05-15 00:00:00,66.6,32.0,30.75,SSW,199,6.0,6.0,10,0.00,BC,SCT,0.00,Misterhouse,2013-05-15 07:00:00,
2013-05-15 00:05:00,66.4,32.0,30.75,SW,217,5.0,5.0,10,0.00,BC,SCT,0.00,Misterhouse,2013-05-15 07:05:00,
2013-05-15 00:10:00,66.4,32.0,30.75,SW,214,9.0,9.0,10,0.00,BC,SCT,0.00,Misterhouse,2013-05-15 07:10:00,
2013-05-15 00:15:00,66.2,32.0,30.72,SSW,200,10.0,11.0,10,0.00,BC,SCT,0.00,Misterhouse,2013-05-15 07:15:00,
2013-05-15 00:20:00,66.0,32.0,30.72,WSW,250,5.0,6.0,10,0.00,BC,SCT,0.00,Misterhouse,2013-05-15 07:20:00,
2013-05-15 00:25:00,66.4,32.0,30.72,SSW,202,11.0,11.0,10,0.00,BC,SCT,0.00,Misterhouse,2013-05-15 07:25:00,
2013-05-15 00:30:00,66.2,32.0,30.72,South,178,8.0,12.0,10,0.00,BC,SCT,0.00,Misterhouse,2013-05-15 07:30:00,
2013-05-15 00:35:00,66.0,32.0,30.72,SW,215,8.0,8.0,10,0.00,BC,SCT,0.00,Misterhouse,2013-05-15 07:35:00,
2013-05-15 00:40:00,65.7,32.0,30.72,SSW,192,9.0,9.0,10,0.00,BC,SCT,0.00,Misterhouse,2013-05-15 07:40:00,
2013-05-15 00:45:00,65.7,32.0,30.72,South,180,8.0,8.0,10,0.00,BC,SCT,0.00,Misterhouse,2013-05-15 07:45:00,
2013-05-15 00:50:00,65.7,32.0,30.72,South,178,10.0,10.0,10,0.00,BC,SCT,0.00,Misterhouse,2013-05-15 07:50:00,
2013-05-15 00:55:00,65.8,32.0,30.72,SSW,202,9.0,9.0,10,0.00,BC,SCT,0.00,Misterhouse,2013-05-15 07:55:00,
2013-05-15 01:00:00,65.8,32.0,30.72,SSW,192,10.0,15.0,10,0.00,BC,SCT,0.00,Misterhouse,2013-05-15 08:00:00,
2013-05-15 01:05:00,65.8,32.0,30.72,SW,218,10.0,11.0,10,0.00,BC,SCT,0.00,Misterhouse,2013-05-15 08:05:00,
2013-05-15 01:10:00,65.8,32.0,30.72,SSW,198,11.0,15.0,10,0.00,BC,SCT,0.00,Misterhouse,2013-05-15 08:10:00,
2013-05-15 01:15:00,65.7,32.0,30.72,South,178,9.0,13.0,10,0.00,BC,SCT,0.00,Misterhouse,2013-05-15 08:15:00,
2013-05-15 01:20:00,65.7,32.0,30.72,SW,233,11.0,11.0,13,0.00,BC,SCT,0.00,Misterhouse,2013-05-15 08:20:00,
2013-05-15 01:25:00,65.8,32.0,30.72,SW,218,12.0,12.0,13,0.00,BC,SCT,0.00,Misterhouse,2013-05-15 08:25:00,
2013-05-15 01:30:00,65.8,32.0,30.72,SW,221,7.0,7.0,13,0.00,BC,SCT,0.00,Misterhouse,2013-05-15 08:30:00,
2013-05-15 01:35:00,65.7,32.0,30.72,SSW,209,11.0,11.0,13,0.00,BC,SCT,0.00,Misterhouse,2013-05-15 08:35:00,
2013-05-15 01:40:00,65.3,32.0,30.72,SW,214,11.0,11.0,13,0.00,BC,SCT,0.00,Misterhouse,2013-05-15 08:40:00,
2013-05-15 01:45:00,65.1,32.0,30.72,SSW,192,8.0,9.0,13,0.00,BC,SCT,0.00,Misterhouse,2013-05-15 08:45:00,
2013-05-15 01:50:00,64.9,32.0,30.72,SSW,205,8.0,8.0,13,0.00,BC,SCT,0.00,Misterhouse,2013-05-15 08:50:00,
2013-05-15 01:55:00,64.9,32.0,30.72,SSW,202,11.0,13.0,13,0.00,BC,SCT,0.00,Misterhouse,2013-05-15 08:55:00,
2013-05-15 02:00:00,64.9,32.0,30.72,South,184,11.0,11.0,13,0.00,BC,SCT,0.00,Misterhouse,2013-05-15 09:00:00,
2013-05-15 02:05:00,64.8,32.0,30.72,SSW,205,12.0,13.0,13,0.00,BC,SCT,0.00,Misterhouse,2013-05-15 09:05:00,
2013-05-15 02:10:00,64.8,32.0,30.72,SSW,192,13.0,13.0,13,0.00,BC,SCT,0.00,Misterhouse,2013-05-15 09:10:00,
2013-05-15 02:15:00,64.8,32.0,30.72,SW,220,11.0,11.0,13,0.00,BC,SCT,0.00,Misterhouse,2013-05-15 09:15:00,
2013-05-15 02:20:00,64.4,32.0,30.72,South,187,12.0,15.0,13,0.00,BC,SCT,0.00,Misterhouse,2013-05-15 09:20:00,
2013-05-15 02:25:00,64.4,32.0,30.72,South,190,9.0,12.0,13,0.00,BC,SCT,0.00,Misterhouse,2013-05-15 09:25:00,
2013-05-15 02:30:00,64.4,32.0,30.72,SW,230,8.0,9.0,13,0.00,BC,SCT,0.00,Misterhouse,2013-05-15 09:30:00,
2013-05-15 02:35:00,64.4,32.0,30.72,SSW,192,11.0,11.0,13,0.00,BC,SCT,0.00,Misterhouse,2013-05-15 09:35:00,
2013-05-15 02:40:00,64.4,32.0,30.72,SSW,203,11.0,15.0,13,0.00,BC,SCT,0.00,Misterhouse,2013-05-15 09:40:00,
2013-05-15 02:55:00,64.6,32.0,30.72,SSE,168,9.0,10.0,13,0.00,BC,SCT,0.00,Misterhouse,2013-05-15 09:55:00,
2013-05-15 03:00:00,64.6,32.0,30.72,SSW,197,11.0,15.0,13,0.00,BC,SCT,0.00,Misterhouse,2013-05-15 10:00:00,
2013-05-15 03:15:00,64.4,32.0,30.72,SW,230,8.0,8.0,13,0.00,BC,SCT,0.00,Misterhouse,2013-05-15 10:15:00,
2013-05-15 03:30:00,64.4,32.0,30.72,SSW,193,6.0,9.0,13,0.00,BC,SCT,0.00,Misterhouse,2013-05-15 10:30:00,
2013-05-15 03:46:00,64.6,32.0,30.72,South,188,11.0,11.0,13,0.00,BC,SCT,0.00,Misterhouse,2013-05-15 10:46:00,
2013-05-15 03:51:00,64.4,32.0,30.72,SSW,193,11.0,11.0,13,0.00,BC,SCT,0.00,Misterhouse,2013-05-15 10:51:00,
2013-05-15 04:05:00,64.9,32.0,30.72,SSW,207,11.0,11.0,15,0.00,BC,SCT,0.00,Misterhouse,2013-05-15 11:05:00,
2013-05-15 04:06:00,64.4,32.0,30.72,SSW,210,9.0,9.0,13,0.00,BC,SCT,0.00,Misterhouse,2013-05-15 11:06:00,
2013-05-15 04:10:00,65.1,32.0,30.72,WSW,257,10.0,10.0,15,0.00,BC,SCT,0.00,Misterhouse,2013-05-15 11:10:00,
2013-05-15 04:11:00,64.4,32.0,30.72,SSW,209,11.0,11.0,13,0.00,BC,SCT,0.00,Misterhouse,2013-05-15 11:11:00,
2013-05-15 04:15:00,64.9,32.0,30.72,SW,226,8.0,8.0,15,0.00,BC,SCT,0.00,Misterhouse,2013-05-15 11:15:00,
2013-05-15 04:20:00,64.8,32.0,30.72,SW,235,8.0,8.0,15,0.00,BC,SCT,0.00,Misterhouse,2013-05-15 11:20:00,
2013-05-15 04:21:00,64.4,32.0,30.72,SSW,209,8.0,10.0,15,0.00,BC,SCT,0.00,Misterhouse,2013-05-15 11:21:00,
2013-05-15 04:26:00,64.6,32.0,30.72,SSW,211,8.0,8.0,15,0.00,BC,SCT,0.00,Misterhouse,2013-05-15 11:26:00,
2013-05-15 04:30:00,64.8,32.0,30.72,SW,220,9.0,11.0,15,0.00,BC,SCT,0.00,Misterhouse,2013-05-15 11:30:00,
2013-05-15 04:35:00,64.8,32.0,30.72,South,186,11.0,11.0,13,0.00,BC,SCT,0.00,Misterhouse,2013-05-15 11:35:00,
2013-05-15 04:36:00,64.4,32.0,30.72,SSW,210,8.0,9.0,13,0.00,BC,SCT,0.00,Misterhouse,2013-05-15 11:36:00,
2013-05-15 04:40:00,64.8,32.0,30.72,South,190,7.0,7.0,13,0.00,BC,SCT,0.00,Misterhouse,2013-05-15 11:40:00,
2013-05-15 04:41:00,64.4,32.0,30.72,SSW,208,8.0,11.0,13,0.00,BC,SCT,0.00,Misterhouse,2013-05-15 11:41:00,
2013-05-15 04:46:00,64.4,32.0,30.72,SSW,197,10.0,13.0,13,0.00,BC,SCT,0.00,Misterhouse,2013-05-15 11:46:00,
2013-05-15 04:51:00,64.8,32.0,30.72,SSW,198,14.0,14.0,13,0.00,BC,SCT,0.00,Misterhouse,2013-05-15 11:51:00,
2013-05-15 04:55:00,64.4,32.0,30.72,SSW,207,10.0,13.0,13,0.00,BC,SCT,0.00,Misterhouse,2013-05-15 11:55:00,
2013-05-15 04:56:00,64.8,32.0,30.72,WSW,251,10.0,11.0,15,0.00,BC,SCT,0.00,Misterhouse,2013-05-15 11:56:00,
2013-05-15 05:00:00,64.2,32.0,30.72,SW,219,10.0,10.0,13,0.00,BC,SCT,0.00,Misterhouse,2013-05-15 12:00:00,
2013-05-15 05:10:00,64.2,32.0,30.72,SSW,203,10.0,11.0,13,0.00,BC,SCT,0.00,Misterhouse,2013-05-15 12:10:00,
2013-05-15 05:26:00,64.4,32.0,30.72,SW,227,10.0,10.0,15,0.00,BC,SCT,0.00,Misterhouse,2013-05-15 12:26:00,
2013-05-15 05:46:00,64.6,32.0,30.72,SSW,203,9.0,9.0,13,0.00,BC,SCT,0.00,Misterhouse,2013-05-15 12:46:00,
2013-05-15 05:51:00,64.6,32.0,30.72,South,177,10.0,10.0,13,0.00,BC,SCT,0.00,Misterhouse,2013-05-15 12:51:00,
2013-05-15 06:06:00,64.0,32.0,30.72,South,169,8.0,8.0,16,0.00,BC,SCT,0.00,Misterhouse,2013-05-15 13:06:00,
2013-05-15 06:16:00,64.4,32.0,30.72,SSW,205,8.0,11.0,13,0.00,BC,SCT,0.00,Misterhouse,2013-05-15 13:16:00,
2013-05-15 06:26:00,64.8,32.0,30.72,SSW,207,9.0,12.0,13,0.00,BC,SCT,0.00,Misterhouse,2013-05-15 13:26:00,
2013-05-15 06:31:00,64.9,32.0,30.72,South,190,12.0,14.0,13,0.00,BC,SCT,0.00,Misterhouse,2013-05-15 13:31:00,
2013-05-15 06:41:00,64.9,32.0,30.72,SW,215,9.0,11.0,13,0.00,BC,SCT,0.00,Misterhouse,2013-05-15 13:41:00,
2013-05-15 06:46:00,65.1,32.0,30.72,SW,217,10.0,10.0,13,0.00,BC,SCT,0.00,Misterhouse,2013-05-15 13:46:00,
2013-05-15 06:56:00,65.1,32.0,30.72,SSW,194,9.0,14.0,13,0.00,BC,SCT,0.00,Misterhouse,2013-05-15 13:56:00,
2013-05-15 07:01:00,64.9,32.0,30.72,SSW,199,9.0,10.0,13,0.00,BC,SCT,0.00,Misterhouse,2013-05-15 14:01:00,
2013-05-15 07:11:00,65.3,32.0,30.75,SSW,210,11.0,14.0,13,0.00,BC,SCT,0.00,Misterhouse,2013-05-15 14:11:00,
2013-05-15 07:16:00,65.5,32.0,30.75,SSW,199,8.0,8.0,13,0.00,BC,SCT,0.00,Misterhouse,2013-05-15 14:16:00,
2013-05-15 07:26:00,65.8,32.0,30.75,South,185,11.0,11.0,13,0.00,BC,SCT,0.00,Misterhouse,2013-05-15 14:26:00,
2013-05-15 07:31:00,66.0,32.0,30.75,South,190,11.0,11.0,13,0.00,BC,SCT,0.00,Misterhouse,2013-05-15 14:31:00,
2013-05-15 07:41:00,66.2,32.0,30.75,SSW,196,8.0,10.0,12,0.00,BC,SCT,0.00,Misterhouse,2013-05-15 14:41:00,
2013-05-15 07:46:00,66.4,32.0,30.75,SSW,202,13.0,13.0,12,0.00,BC,SCT,0.00,Misterhouse,2013-05-15 14:46:00,
2013-05-15 08:01:00,67.6,32.0,30.75,SW,217,11.0,11.0,12,0.00,BC,SCT,0.00,Misterhouse,2013-05-15 15:01:00,
2013-05-15 08:11:00,68.2,32.0,30.75,SSW,206,10.0,11.0,12,0.00,BC,SCT,0.00,Misterhouse,2013-05-15 15:11:00,
2013-05-15 08:21:00,68.5,32.0,30.75,SSW,203,10.0,11.0,12,0.00,BC,SCT,0.00,Misterhouse,2013-05-15 15:21:00,
2013-05-15 08:26:00,68.9,32.0,30.75,WSW,244,8.0,8.0,12,0.00,BC,SCT,0.00,Misterhouse,2013-05-15 15:26:00,
2013-05-15 08:31:00,69.6,32.0,30.75,South,185,10.0,11.0,12,0.00,BC,SCT,0.00,Misterhouse,2013-05-15 15:31:00,
2013-05-15 08:36:00,69.8,32.0,30.75,SSW,193,8.0,10.0,12,0.00,BC,SCT,0.00,Misterhouse,2013-05-15 15:36:00,
2013-05-15 08:41:00,70.2,32.0,30.72,South,180,7.0,8.0,12,0.00,BC,SCT,0.00,Misterhouse,2013-05-15 15:41:00,
2013-05-15 08:51:00,71.2,32.0,30.72,West,263,8.0,8.0,12,0.00,BC,SCT,0.00,Misterhouse,2013-05-15 15:51:00,
2013-05-15 09:01:00,71.2,32.0,30.72,South,187,10.0,11.0,12,0.00,BC,SCT,0.00,Misterhouse,2013-05-15 16:01:00,
2013-05-15 09:06:00,71.2,32.0,30.72,SW,214,8.0,8.0,9,0.00,BC,SCT,0.00,Misterhouse,2013-05-15 16:06:00,
2013-05-15 09:11:00,71.2,32.0,30.72,SSW,201,10.0,10.0,9,0.00,BC,SCT,0.00,Misterhouse,2013-05-15 16:11:00,
2013-05-15 09:16:00,71.4,32.0,30.75,South,190,8.0,11.0,9,0.00,BC,SCT,0.00,Misterhouse,2013-05-15 16:16:00,
2013-05-15 09:21:00,71.8,32.0,30.75,WSW,258,11.0,11.0,9,0.00,BC,SCT,0.00,Misterhouse,2013-05-15 16:21:00,
2013-05-15 09:26:00,72.1,32.0,30.75,SSW,203,11.0,11.0,9,0.00,BC,SCT,0.00,Misterhouse,2013-05-15 16:26:00,
2013-05-15 09:31:00,72.7,32.0,30.75,SSW,196,8.0,8.0,9,0.00,BC,SCT,0.00,Misterhouse,2013-05-15 16:31:00,
2013-05-15 09:36:00,72.3,32.0,30.75,West,259,9.0,9.0,9,0.00,BC,SCT,0.00,Misterhouse,2013-05-15 16:36:00,
2013-05-15 09:41:00,72.3,32.0,30.75,SW,221,9.0,9.0,9,0.00,BC,SCT,0.00,Misterhouse,2013-05-15 16:41:00,
2013-05-15 09:46:00,72.5,32.0,30.75,SSW,198,7.0,12.0,9,0.00,BC,SCT,0.00,Misterhouse,2013-05-15 16:46:00,
2013-05-15 09:51:00,72.7,32.0,30.75,WSW,253,8.0,9.0,9,0.00,BC,SCT,0.00,Misterhouse,2013-05-15 16:51:00,
2013-05-15 09:56:00,73.6,32.0,30.75,WSW,257,8.0,8.0,8,0.00,BC,SCT,0.00,Misterhouse,2013-05-15 16:56:00,
2013-05-15 10:01:00,73.8,32.0,30.75,SSW,206,9.0,9.0,8,0.00,BC,SCT,0.00,Misterhouse,2013-05-15 17:01:00,
2013-05-15 10:11:00,74.5,32.0,30.75,SSW,210,7.0,11.0,8,0.00,BC,SCT,0.00,Misterhouse,2013-05-15 17:11:00,
2013-05-15 10:16:00,74.3,32.0,30.75,West,274,8.0,11.0,8,0.00,BC,SCT,0.00,Misterhouse,2013-05-15 17:16:00,
2013-05-15 10:26:00,74.3,32.0,30.75,SSW,195,10.0,10.0,8,0.00,BC,SCT,0.00,Misterhouse,2013-05-15 17:26:00,
2013-05-15 10:31:00,73.9,32.0,30.75,South,177,8.0,10.0,8,0.00,BC,SCT,0.00,Misterhouse,2013-05-15 17:31:00,
2013-05-15 10:36:00,74.3,32.0,30.75,SW,222,8.0,8.0,11,0.00,BC,SCT,0.00,Misterhouse,2013-05-15 17:36:00,
2013-05-15 10:41:00,74.5,32.0,30.75,SSW,200,12.0,12.0,11,0.00,BC,SCT,0.00,Misterhouse,2013-05-15 17:41:00,
2013-05-15 10:46:00,75.0,32.0,30.75,SSW,197,11.0,11.0,11,0.00,BC,SCT,0.00,Misterhouse,2013-05-15 17:46:00,
2013-05-15 10:56:00,75.2,32.0,30.75,South,187,7.0,11.0,10,0.00,BC,SCT,0.00,Misterhouse,2013-05-15 17:56:00,
2013-05-15 11:01:00,75.0,32.0,30.75,SSW,200,8.0,8.0,11,0.00,BC,SCT,0.00,Misterhouse,2013-05-15 18:01:00,
2013-05-15 11:11:00,75.0,32.0,30.75,South,170,5.0,5.0,11,0.00,BC,SCT,0.00,Misterhouse,2013-05-15 18:11:00,
2013-05-15 11:16:00,75.6,32.0,30.75,SSW,204,6.0,8.0,10,0.00,BC,SCT,0.00,Misterhouse,2013-05-15 18:16:00,
2013-05-15 11:26:00,75.2,32.0,30.75,SW,216,6.0,6.0,10,0.00,BC,SCT,0.00,Misterhouse,2013-05-15 18:26:00,
2013-05-15 11:41:00,75.2,32.0,30.75,SSW,209,9.0,9.0,10,0.00,BC,SCT,0.00,Misterhouse,2013-05-15 18:41:00,
2013-05-15 11:46:00,75.9,32.0,30.75,SSW,200,11.0,12.0,10,0.00,BC,SCT,0.00,Misterhouse,2013-05-15 18:46:00,
2013-05-15 11:51:00,75.7,32.0,30.75,South,189,11.0,15.0,10,0.00,BC,SCT,0.00,Misterhouse,2013-05-15 18:51:00,
2013-05-15 11:56:00,75.7,32.0,30.75,WSW,254,8.0,13.0,10,0.00,BC,SCT,0.00,Misterhouse,2013-05-15 18:56:00,
2013-05-15 12:01:00,75.6,32.0,30.75,SSW,211,11.0,13.0,10,0.00,BC,SCT,0.00,Misterhouse,2013-05-15 19:01:00,
2013-05-15 12:07:00,75.6,32.0,30.75,SW,214,11.0,11.0,10,0.00,BC,SCT,0.00,Misterhouse,2013-05-15 19:07:00,
2013-05-15 12:16:00,75.4,32.0,30.75,WSW,248,11.0,11.0,10,0.00,BC,SCT,0.00,Misterhouse,2013-05-15 19:16:00,
2013-05-15 12:21:00,75.7,32.0,30.75,SSW,198,11.0,11.0,10,0.00,BC,SCT,0.00,Misterhouse,2013-05-15 19:21:00,
2013-05-15 12:36:00,76.3,32.0,30.75,West,267,10.0,14.0,10,0.00,BC,SCT,0.00,Misterhouse,2013-05-15 19:36:00,
2013-05-15 12:41:00,75.6,32.0,30.75,WSW,248,11.0,11.0,10,0.00,BC,SCT,0.00,Misterhouse,2013-05-15 19:41:00,
2013-05-15 12:46:00,75.7,32.0,30.75,SSW,200,11.0,15.0,10,0.00,BC,SCT,0.00,Misterhouse,2013-05-15 19:46:00,
2013-05-15 12:51:00,77.4,32.0,30.75,SSE,159,10.0,10.0,10,0.00,BC,SCT,0.00,Misterhouse,2013-05-15 19:51:00,
2013-05-15 12:56:00,77.7,32.0,30.75,South,174,11.0,15.0,10,0.00,BC,SCT,0.00,Misterhouse,2013-05-15 19:56:00,
2013-05-15 13:01:00,77.5,32.0,30.72,SSW,211,11.0,17.0,10,0.00,BC,SCT,0.00,Misterhouse,2013-05-15 20:01:00,
2013-05-15 13:11:00,76.6,32.0,30.72,WSW,240,12.0,12.0,10,0.00,BC,SCT,0.00,Misterhouse,2013-05-15 20:11:00,
2013-05-15 13:21:00,76.5,32.0,30.72,SSW,199,11.0,15.0,10,0.00,BC,SCT,0.00,Misterhouse,2013-05-15 20:21:00,
2013-05-15 13:26:00,76.6,32.0,30.72,SSE,153,10.0,11.0,10,0.00,BC,SCT,0.00,Misterhouse,2013-05-15 20:26:00,
2013-05-15 13:31:00,75.6,32.0,30.72,SSE,167,12.0,12.0,10,0.00,BC,SCT,0.00,Misterhouse,2013-05-15 20:31:00,
2013-05-15 13:36:00,76.3,32.0,30.72,South,190,11.0,11.0,10,0.00,BC,SCT,0.00,Misterhouse,2013-05-15 20:36:00,
2013-05-15 13:41:00,77.5,32.0,30.72,SW,225,10.0,13.0,10,0.00,BC,SCT,0.00,Misterhouse,2013-05-15 20:41:00,
2013-05-15 13:46:00,77.2,32.0,30.72,SSW,206,10.0,10.0,10,0.00,BC,SCT,0.00,Misterhouse,2013-05-15 20:46:00,
2013-05-15 13:51:00,76.6,32.0,30.72,South,187,15.0,20.0,10,0.00,BC,SCT,0.00,Misterhouse,2013-05-15 20:51:00,
2013-05-15 13:56:00,75.9,32.0,30.72,SW,228,11.0,11.0,10,0.00,BC,SCT,0.00,Misterhouse,2013-05-15 20:56:00,
2013-05-15 14:01:00,77.9,32.0,30.72,South,178,9.0,9.0,10,0.00,BC,SCT,0.00,Misterhouse,2013-05-15 21:01:00,
2013-05-15 14:11:00,77.7,32.0,30.72,SE,132,10.0,10.0,10,0.00,BC,SCT,0.00,Misterhouse,2013-05-15 21:11:00,
2013-05-15 14:21:00,76.8,32.0,30.72,West,266,11.0,15.0,10,0.00,BC,SCT,0.00,Misterhouse,2013-05-15 21:21:00,
2013-05-15 14:26:00,77.5,32.0,30.72,WSW,242,11.0,11.0,10,0.00,BC,SCT,0.00,Misterhouse,2013-05-15 21:26:00,
2013-05-15 14:31:00,77.2,32.0,30.72,SSW,204,8.0,11.0,10,0.00,BC,SCT,0.00,Misterhouse,2013-05-15 21:31:00,
2013-05-15 14:41:00,77.4,32.0,30.72,South,190,11.0,13.0,10,0.00,BC,SCT,0.00,Misterhouse,2013-05-15 21:41:00,
2013-05-15 14:46:00,77.0,32.0,30.72,WSW,258,10.0,11.0,10,0.00,BC,SCT,0.00,Misterhouse,2013-05-15 21:46:00,
2013-05-15 14:51:00,75.9,32.0,30.72,SSW,195,9.0,9.0,10,0.00,BC,SCT,0.00,Misterhouse,2013-05-15 21:51:00,
2013-05-15 14:56:00,75.9,32.0,30.72,SE,137,9.0,12.0,10,0.00,BC,SCT,0.00,Misterhouse,2013-05-15 21:56:00,
2013-05-15 15:01:00,75.4,32.0,30.72,SE,130,14.0,14.0,10,0.00,BC,SCT,0.00,Misterhouse,2013-05-15 22:01:00,
2013-05-15 15:11:00,75.9,32.0,30.72,WSW,241,10.0,10.0,10,0.00,BC,SCT,0.00,Misterhouse,2013-05-15 22:11:00,
2013-05-15 15:16:00,75.7,32.0,30.72,SSE,158,8.0,13.0,10,0.00,BC,SCT,0.00,Misterhouse,2013-05-15 22:16:00,
2013-05-15 15:21:00,76.5,32.0,30.72,SSW,193,11.0,11.0,10,0.00,BC,SCT,0.00,Misterhouse,2013-05-15 22:21:00,
2013-05-15 15:31:00,76.6,32.0,30.72,SSW,197,8.0,8.0,10,0.00,BC,SCT,0.00,Misterhouse,2013-05-15 22:31:00,
2013-05-15 15:36:00,76.6,32.0,30.72,WSW,254,8.0,10.0,10,0.00,BC,SCT,0.00,Misterhouse,2013-05-15 22:36:00,
2013-05-15 15:41:00,76.1,32.0,30.72,South,180,8.0,11.0,10,0.00,BC,SCT,0.00,Misterhouse,2013-05-15 22:41:00,
2013-05-15 15:46:00,75.0,32.0,30.72,SSE,165,9.0,11.0,11,0.00,BC,SCT,0.00,Misterhouse,2013-05-15 22:46:00,
2013-05-15 15:56:00,75.0,32.0,30.72,SSW,204,10.0,12.0,11,0.00,BC,SCT,0.00,Misterhouse,2013-05-15 22:56:00,
2013-05-15 16:01:00,74.8,32.0,30.72,South,191,10.0,15.0,11,0.00,BC,SCT,0.00,Misterhouse,2013-05-15 23:01:00,
2013-05-15 16:16:00,74.3,32.0,30.72,South,186,10.0,10.0,13,0.00,BC,SCT,0.00,Misterhouse,2013-05-15 23:16:00,
2013-05-15 16:21:00,73.0,32.0,30.72,WSW,254,9.0,13.0,14,0.00,BC,SCT,0.00,Misterhouse,2013-05-15 23:21:00,
2013-05-15 16:26:00,73.4,32.0,30.72,SW,227,7.0,8.0,16,0.00,BC,SCT,0.00,Misterhouse,2013-05-15 23:26:00,
2013-05-15 16:36:00,72.5,32.0,30.72,SSW,199,11.0,13.0,19,0.00,BC,SCT,0.00,Misterhouse,2013-05-15 23:36:00,
2013-05-15 16:41:00,72.5,32.0,30.72,SW,230,8.0,11.0,19,0.00,BC,SCT,0.00,Misterhouse,2013-05-15 23:41:00,
2013-05-15 16:46:00,72.5,32.0,30.72,SW,229,8.0,8.0,19,0.00,BC,SCT,0.00,Misterhouse,2013-05-15 23:46:00,
2013-05-15 16:51:00,72.1,32.0,30.72,SW,221,8.0,8.0,21,0.00,BC,SCT,0.00,Misterhouse,2013-05-15 23:51:00,
2013-05-15 16:56:00,72.5,32.0,30.72,WSW,247,8.0,12.0,22,0.00,BC,SCT,0.00,Misterhouse,2013-05-15 23:56:00,
2013-05-15 17:01:00,71.2,32.0,30.72,WSW,251,11.0,11.0,22,0.00,BC,SCT,0.00,Misterhouse,2013-05-16 00:01:00,
2013-05-15 17:11:00,70.9,32.0,30.72,South,186,9.0,9.0,23,0.00,BC,SCT,0.00,Misterhouse,2013-05-16 00:11:00,
2013-05-15 17:16:00,70.9,32.0,30.69,South,191,10.0,10.0,23,0.00,RA,OVC,0.00,Misterhouse,2013-05-16 00:16:00,
2013-05-15 17:21:00,70.9,33.8,30.69,SW,235,10.0,10.0,24,0.00,RA,OVC,0.00,Misterhouse,2013-05-16 00:21:00,
2013-05-15 17:31:00,70.5,32.0,30.69,West,281,7.0,7.0,19,0.00,RA,OVC,0.00,Misterhouse,2013-05-16 00:31:00,
2013-05-15 17:36:00,70.7,32.0,30.69,SSW,212,8.0,8.0,23,0.00,RA,OVC,0.00,Misterhouse,2013-05-16 00:36:00,
2013-05-15 17:41:00,69.8,32.0,30.69,WSW,248,11.0,11.0,25,0.00,RA,OVC,0.00,Misterhouse,2013-05-16 00:41:00,
2013-05-15 17:46:00,70.0,32.0,30.69,SSE,162,8.0,8.0,23,0.00,RA,OVC,0.00,Misterhouse,2013-05-16 00:46:00,
2013-05-15 17:51:00,70.7,32.0,30.69,SSW,197,5.0,9.0,22,0.00,RA,OVC,0.00,Misterhouse,2013-05-16 00:51:00,
2013-05-15 17:56:00,70.7,32.0,30.69,WSW,247,10.0,10.0,23,0.00,RA,OVC,0.00,Misterhouse,2013-05-16 00:56:00,
2013-05-15 18:01:00,71.1,32.0,30.69,SW,216,7.0,7.0,22,0.00,RA,OVC,0.00,Misterhouse,2013-05-16 01:01:00,
2013-05-15 18:11:00,70.9,32.0,30.69,SSW,203,7.0,9.0,22,0.00,RA,OVC,0.00,Misterhouse,2013-05-16 01:11:00,
2013-05-15 18:16:00,70.2,32.0,30.69,WSW,243,8.0,8.0,22,0.00,RA,OVC,0.00,Misterhouse,2013-05-16 01:16:00,
2013-05-15 18:26:00,69.6,32.0,30.69,WSW,244,5.0,8.0,24,0.00,RA,OVC,0.00,Misterhouse,2013-05-16 01:26:00,
2013-05-15 18:31:00,68.9,32.0,30.69,SSW,207,7.0,7.0,25,0.00,RA,OVC,0.00,Misterhouse,2013-05-16 01:31:00,
2013-05-15 18:41:00,68.4,32.0,30.69,South,190,8.0,8.0,24,0.00,RA,OVC,0.00,Misterhouse,2013-05-16 01:41:00,
2013-05-15 18:52:00,68.5,32.0,30.69,South,178,6.0,15.0,25,0.00,RA,OVC,0.00,Misterhouse,2013-05-16 01:52:00,
2013-05-15 19:01:00,68.2,32.0,30.69,SSW,193,9.0,13.0,26,0.00,RA,OVC,0.00,Misterhouse,2013-05-16 02:01:00,
2013-05-15 19:06:00,68.2,32.0,30.69,WSW,244,8.0,8.0,24,0.00,RA,OVC,0.00,Misterhouse,2013-05-16 02:06:00,
2013-05-15 19:11:00,68.4,32.0,30.69,SSW,201,9.0,9.0,23,0.00,RA,OVC,0.00,Misterhouse,2013-05-16 02:11:00,
2013-05-15 19:21:00,68.7,32.0,30.69,SSW,208,9.0,9.0,20,0.00,RA,OVC,0.00,Misterhouse,2013-05-16 02:21:00,
2013-05-15 19:26:00,68.7,32.0,30.69,SSW,198,12.0,12.0,20,0.00,RA,OVC,0.00,Misterhouse,2013-05-16 02:26:00,
2013-05-15 19:31:00,68.0,32.0,30.69,South,185,10.0,13.0,22,0.00,RA,OVC,0.00,Misterhouse,2013-05-16 02:31:00,
2013-05-15 19:41:00,68.2,32.0,30.69,SSW,196,12.0,12.0,22,0.00,RA,OVC,0.00,Misterhouse,2013-05-16 02:41:00,
2013-05-15 19:46:00,68.0,32.0,30.69,South,186,11.0,11.0,23,0.00,RA,OVC,0.00,Misterhouse,2013-05-16 02:46:00,
2013-05-15 19:51:00,67.8,32.0,30.69,South,187,12.0,13.0,23,0.00,RA,OVC,0.00,Misterhouse,2013-05-16 02:51:00,
2013-05-15 19:56:00,67.6,32.0,30.69,SSW,210,15.0,15.0,24,0.00,RA,OVC,0.00,Misterhouse,2013-05-16 02:56:00,
2013-05-15 20:00:00,66.6,32.0,30.69,SSW,206,15.0,17.0,23,0.00,RA,OVC,0.00,Misterhouse,2013-05-16 03:00:00,
2013-05-15 20:01:00,67.6,32.0,30.69,South,173,12.0,13.0,23,0.00,RA,OVC,0.00,Misterhouse,2013-05-16 03:01:00,
2013-05-15 20:05:00,66.4,32.0,30.69,SSW,211,14.0,16.0,24,0.00,RA,OVC,0.00,Misterhouse,2013-05-16 03:05:00,
2013-05-15 20:06:00,67.6,32.0,30.69,South,185,15.0,15.0,24,0.00,RA,OVC,0.00,Misterhouse,2013-05-16 03:06:00,
2013-05-15 20:10:00,66.2,32.0,30.69,South,189,18.0,18.0,24,0.00,RA,OVC,0.00,Misterhouse,2013-05-16 03:10:00,
2013-05-15 20:11:00,67.3,32.0,30.69,South,190,13.0,13.0,25,0.00,RA,OVC,0.00,Misterhouse,2013-05-16 03:11:00,
2013-05-15 20:15:00,66.0,32.0,30.69,SSW,213,15.0,15.0,23,0.00,RA,OVC,0.00,Misterhouse,2013-05-16 03:15:00,
2013-05-15 20:17:00,67.3,32.0,30.69,SW,228,12.0,13.0,24,0.00,RA,OVC,0.00,Misterhouse,2013-05-16 03:17:00,
2013-05-15 20:20:00,66.2,32.0,30.69,SSW,213,16.0,22.0,23,0.00,RA,OVC,0.00,Misterhouse,2013-05-16 03:20:00,
2013-05-15 20:25:00,66.2,32.0,30.69,SSW,207,15.0,15.0,23,0.00,RA,OVC,0.00,Misterhouse,2013-05-16 03:25:00,
2013-05-15 20:26:00,66.9,32.0,30.69,South,190,13.0,13.0,25,0.00,RA,OVC,0.00,Misterhouse,2013-05-16 03:26:00,
2013-05-15 20:30:00,66.2,32.0,30.69,SW,224,16.0,16.0,23,0.00,RA,OVC,0.00,Misterhouse,2013-05-16 03:30:00,
2013-05-15 20:31:00,66.7,32.0,30.69,South,186,13.0,15.0,27,0.00,RA,OVC,0.00,Misterhouse,2013-05-16 03:31:00,
2013-05-15 20:35:00,66.0,32.0,30.69,South,187,15.0,19.0,23,0.00,RA,OVC,0.00,Misterhouse,2013-05-16 03:35:00,
2013-05-15 20:36:00,66.9,32.0,30.69,SSW,199,14.0,14.0,25,0.00,RA,OVC,0.00,Misterhouse,2013-05-16 03:36:00,
2013-05-15 20:40:00,65.8,32.0,30.69,SW,230,14.0,15.0,23,0.00,RA,OVC,0.00,Misterhouse,2013-05-16 03:40:00,
2013-05-15 20:45:00,65.8,32.0,30.69,SSW,200,18.0,18.0,24,0.00,RA,OVC,0.00,Misterhouse,2013-05-16 03:45:00,
2013-05-15 20:46:00,66.6,32.0,30.69,SW,218,15.0,15.0,27,0.00,RA,OVC,0.00,Misterhouse,2013-05-16 03:46:00,
2013-05-15 20:50:00,66.2,32.0,30.69,SW,214,16.0,16.0,23,0.00,RA,OVC,0.00,Misterhouse,2013-05-16 03:50:00,
2013-05-15 20:51:00,66.4,32.0,30.69,SSW,195,15.0,16.0,25,0.00,RA,OVC,0.00,Misterhouse,2013-05-16 03:51:00,
2013-05-15 20:55:00,66.0,32.0,30.69,SSW,201,15.0,15.0,23,0.00,RA,OVC,0.00,Misterhouse,2013-05-16 03:55:00,
2013-05-15 20:56:00,66.4,32.0,30.69,SW,215,13.0,15.0,25,0.00,RA,OVC,0.00,Misterhouse,2013-05-16 03:56:00,
2013-05-15 21:00:00,65.8,32.0,30.69,SW,217,15.0,15.0,23,0.00,RA,OVC,0.00,Misterhouse,2013-05-16 04:00:00,
2013-05-15 21:05:00,66.0,32.0,30.69,South,191,13.0,15.0,23,0.00,RA,OVC,0.00,Misterhouse,2013-05-16 04:05:00,
2013-05-15 21:10:00,66.0,32.0,30.69,SSW,207,14.0,15.0,23,0.00,RA,OVC,0.00,Misterhouse,2013-05-16 04:10:00,
2013-05-15 21:15:00,66.0,32.0,30.69,SW,219,14.0,15.0,23,0.00,RA,OVC,0.00,Misterhouse,2013-05-16 04:15:00,
2013-05-15 21:20:00,65.7,32.0,30.69,SSW,200,12.0,15.0,24,0.00,RA,OVC,0.00,Misterhouse,2013-05-16 04:20:00,
2013-05-15 21:25:00,65.5,32.0,30.69,SSW,201,11.0,15.0,24,0.00,RA,OVC,0.00,Misterhouse,2013-05-16 04:25:00,
2013-05-15 21:30:00,65.1,32.0,30.72,SSW,206,12.0,12.0,25,0.00,RA,OVC,0.00,Misterhouse,2013-05-16 04:30:00,
2013-05-15 21:35:00,64.8,32.0,30.72,SSW,212,10.0,10.0,25,0.00,RA,OVC,0.00,Misterhouse,2013-05-16 04:35:00,
2013-05-15 21:40:00,64.6,32.0,30.72,SSW,192,11.0,15.0,25,0.00,RA,OVC,0.00,Misterhouse,2013-05-16 04:40:00,
2013-05-15 21:45:00,64.2,32.0,30.72,SSW,199,13.0,15.0,26,0.00,RA,OVC,0.00,Misterhouse,2013-05-16 04:45:00,
2013-05-15 21:50:00,63.9,32.0,30.72,SSW,212,12.0,13.0,28,0.00,RA,OVC,0.00,Misterhouse,2013-05-16 04:50:00,
2013-05-15 21:55:00,63.9,32.0,30.72,SSW,203,10.0,11.0,28,0.00,RA,OVC,0.00,Misterhouse,2013-05-16 04:55:00,
2013-05-15 22:00:00,63.7,32.0,30.72,SSW,200,13.0,13.0,27,0.00,RA,OVC,0.00,Misterhouse,2013-05-16 05:00:00,
2013-05-15 22:05:00,63.7,32.0,30.72,South,176,12.0,13.0,26,0.00,RA,OVC,0.00,Misterhouse,2013-05-16 05:05:00,
2013-05-15 22:10:00,63.9,32.0,30.72,South,183,13.0,15.0,27,0.00,RA,OVC,0.00,Misterhouse,2013-05-16 05:10:00,
2013-05-15 22:15:00,63.9,32.0,30.69,SSW,204,13.0,13.0,25,0.00,RA,OVC,0.00,Misterhouse,2013-05-16 05:15:00,
2013-05-15 22:20:00,64.2,32.0,30.69,South,173,15.0,15.0,25,0.00,RA,OVC,0.00,Misterhouse,2013-05-16 05:20:00,
2013-05-15 22:25:00,64.4,32.0,30.69,SSW,200,12.0,13.0,23,0.00,RA,OVC,0.00,Misterhouse,2013-05-16 05:25:00,
2013-05-15 22:30:00,64.4,32.0,30.69,SW,235,11.0,12.0,23,0.00,RA,OVC,0.00,Misterhouse,2013-05-16 05:30:00,
2013-05-15 22:35:00,64.4,32.0,30.69,WSW,244,11.0,17.0,23,0.00,RA,OVC,0.00,Misterhouse,2013-05-16 05:35:00,
2013-05-15 22:40:00,64.4,32.0,30.69,South,173,12.0,15.0,20,0.00,RA,OVC,0.00,Misterhouse,2013-05-16 05:40:00,
2013-05-15 22:45:00,63.9,32.0,30.69,West,269,10.0,11.0,24,0.00,RA,OVC,0.00,Misterhouse,2013-05-16 05:45:00,
2013-05-15 22:50:00,63.5,32.0,30.69,South,174,8.0,11.0,26,0.00,RA,OVC,0.00,Misterhouse,2013-05-16 05:50:00,
2013-05-15 22:55:00,63.0,32.0,30.69,South,181,10.0,15.0,27,0.00,RA,OVC,0.00,Misterhouse,2013-05-16 05:55:00,
2013-05-15 23:00:00,63.0,32.0,30.69,South,190,11.0,11.0,30,0.00,RA,OVC,0.00,Misterhouse,2013-05-16 06:00:00,
2013-05-15 23:05:00,63.0,32.0,30.69,SSW,209,11.0,13.0,29,0.00,RA,OVC,0.00,Misterhouse,2013-05-16 06:05:00,
2013-05-15 23:10:00,62.6,32.0,30.69,SW,218,11.0,13.0,28,0.00,RA,OVC,0.00,Misterhouse,2013-05-16 06:10:00,
2013-05-15 23:15:00,62.6,32.0,30.69,SSW,200,8.0,8.0,27,0.00,RA,OVC,0.00,Misterhouse,2013-05-16 06:15:00,
2013-05-15 23:20:00,62.6,32.0,30.69,WSW,251,6.0,8.0,27,0.00,RA,OVC,0.00,Misterhouse,2013-05-16 06:20:00,
2013-05-15 23:25:00,62.2,32.0,30.69,SW,214,7.0,7.0,28,0.00,RA,OVC,0.00,Misterhouse,2013-05-16 06:25:00,
2013-05-15 23:30:00,61.9,32.0,30.69,WSW,245,5.0,8.0,28,0.00,RA,OVC,0.00,Misterhouse,2013-05-16 06:30:00,
2013-05-15 23:35:00,62.1,32.0,30.69,West,263,6.0,6.0,28,0.00,RA,OVC,0.00,Misterhouse,2013-05-16 06:35:00,
2013-05-15 23:40:00,61.9,32.0,30.69,SSW,194,9.0,9.0,29,0.00,RA,OVC,0.00,Misterhouse,2013-05-16 06:40:00,
2013-05-15 23:45:00,61.7,32.0,30.69,South,179,7.0,8.0,29,0.00,RA,OVC,0.00,Misterhouse,2013-05-16 06:45:00,
2013-05-15 23:50:00,61.7,32.0,30.69,SSW,211,9.0,13.0,29,0.00,RA,OVC,0.00,Misterhouse,2013-05-16 06:50:00,
2013-05-15 23:55:00,61.7,32.0,30.69,SSW,208,11.0,11.0,26,0.00,RA,OVC,0.00,Misterhouse,2013-05-16 06:55:00,